When you browse on this site, cookies collect data to enhance your experience and personalize the content and advertising you see.
Visit our Privacy Policy to learn more. By continuing to use the site, you agree to this use of cookies and data.
  • In Hungary
  • List of Countries
  • For 7 days
  • Water Temperature
  • Satellite Maps
  • Weather Map
  • News
  • Weather Widgets
  • user-avatar
    Login

    Hourly Weather Borzhomi

    Today, 20 November, Tuesday

    Time Temperature Precipitation Wind Pressure Humidity
    00:00 +3°C° 0 mm 2 mps 668 mmHg 62%
    01:00 +3°C° 0 mm 2 mps 668 mmHg 63%
    02:00 +3°C° 0 mm 2 mps 668 mmHg 63%
    03:00 +3°C° 0 mm 2 mps 668 mmHg 64%
    04:00 +3°C° 0 mm 2 mps 668 mmHg 65%
    05:00 +3°C° 0 mm 2 mps 667 mmHg 65%
    06:00 +3°C° 0 mm 2 mps 667 mmHg 66%
    07:00 +4°C° 0 mm 2 mps 667 mmHg 64%
    08:00 +5°C° 0 mm 2 mps 668 mmHg 61%
    09:00 +7°C° 0 mm 2 mps 668 mmHg 59%
    10:00 +8°C° 0 mm 2 mps 668 mmHg 56%
    11:00 +9°C° 0 mm 2 mps 668 mmHg 53%
    12:00 +10°C° 0 mm 2 mps 668 mmHg 50%
    13:00 +10°C° 0.1 mm 2 mps 668 mmHg 55%
    14:00 +9°C° 0.1 mm 2 mps 667 mmHg 60%
    15:00 +8°C° 0.1 mm 2 mps 667 mmHg 65%
    16:00 +7°C° 0.1 mm 2 mps 667 mmHg 70%
    17:00 +6°C° 0.1 mm 2 mps 667 mmHg 76%
    18:00 +6°C° 0.1 mm 1 mps 667 mmHg 81%
    19:00 +5°C° 0.2 mm 2 mps 667 mmHg 82%
    20:00 +5°C° 0.2 mm 2 mps 667 mmHg 82%
    21:00 +5°C° 0.2 mm 2 mps 667 mmHg 82%
    22:00 +5°C° 0.4 mm 2 mps 667 mmHg 85%
    23:00 +5°C° 0.4 mm 2 mps 667 mmHg 87%

    Tomorrow, 21 November, Wednesday

    Time Temperature Precipitation Wind Pressure Humidity
    00:00 +5°C° 0.4 mm 2 mps 667 mmHg 89%
    01:00 +5°C° 0.1 mm 2 mps 667 mmHg 90%
    02:00 +5°C° 0.1 mm 2 mps 667 mmHg 91%
    03:00 +5°C° 0.1 mm 2 mps 666 mmHg 92%
    04:00 +5°C° 0.2 mm 2 mps 666 mmHg 93%
    05:00 +5°C° 0.2 mm 2 mps 666 mmHg 93%
    06:00 +5°C° 0.2 mm 2 mps 666 mmHg 93%
    07:00 +6°C° 0.1 mm 2 mps 666 mmHg 91%
    08:00 +6°C° 0.1 mm 2 mps 666 mmHg 89%
    09:00 +6°C° 0.1 mm 2 mps 666 mmHg 86%
    10:00 +7°C° 0 mm 2 mps 665 mmHg 83%
    11:00 +7°C° 0 mm 2 mps 665 mmHg 80%
    12:00 +8°C° 0 mm 2 mps 664 mmHg 77%
    13:00 +7°C° 0.1 mm 2 mps 664 mmHg 77%
    14:00 +7°C° 0.1 mm 2 mps 664 mmHg 77%
    15:00 +7°C° 0.1 mm 2 mps 663 mmHg 77%
    16:00 +8°C° 0.2 mm 1 mps 663 mmHg 81%
    17:00 +7°C° 0.2 mm 1 mps 663 mmHg 84%
    18:00 +7°C° 0.2 mm 1 mps 663 mmHg 88%
    19:00 +6°C° 0.2 mm 1 mps 663 mmHg 88%
    20:00 +6°C° 0.2 mm 1 mps 663 mmHg 88%
    21:00 +6°C° 0.2 mm 1 mps 663 mmHg 88%
    22:00 +6°C° 0.3 mm 1 mps 663 mmHg 88%
    23:00 +6°C° 0.3 mm 1 mps 663 mmHg 88%

    Day after tomorrow, 22 November, Thursday

    Time Temperature Precipitation Wind Pressure Humidity
    00:00 +6°C° 0.3 mm 1 mps 663 mmHg 87%
    01:00 +6°C° 0.4 mm 1 mps 663 mmHg 88%
    02:00 +6°C° 0.4 mm 1 mps 663 mmHg 88%
    03:00 +6°C° 0.4 mm 1 mps 663 mmHg 89%
    04:00 +6°C° 0.5 mm 1 mps 663 mmHg 89%
    05:00 +6°C° 0.5 mm 1 mps 663 mmHg 89%
    06:00 +5°C° 0.5 mm 1 mps 663 mmHg 89%
    07:00 +6°C° 0.3 mm 1 mps 663 mmHg 87%
    08:00 +6°C° 0.3 mm 1 mps 663 mmHg 86%
    09:00 +6°C° 0.3 mm 1 mps 663 mmHg 84%
    10:00 +7°C° 0.2 mm 1 mps 663 mmHg 82%
    11:00 +8°C° 0.2 mm 1 mps 663 mmHg 79%
    12:00 +8°C° 0.2 mm 1 mps 663 mmHg 77%
    13:00 +8°C° 0.1 mm 1 mps 663 mmHg 78%
    14:00 +8°C° 0.1 mm 1 mps 663 mmHg 78%
    15:00 +8°C° 0.1 mm 1 mps 662 mmHg 79%
    16:00 +8°C° 0.3 mm 1 mps 663 mmHg 82%
    17:00 +7°C° 0.3 mm 1 mps 663 mmHg 85%
    18:00 +6°C° 0.3 mm 1 mps 663 mmHg 88%
    19:00 +6°C° 0.4 mm 1 mps 663 mmHg 88%
    20:00 +6°C° 0.4 mm 1 mps 663 mmHg 88%
    21:00 +6°C° 0.4 mm 1 mps 664 mmHg 88%
    22:00 +6°C° 0.2 mm 1 mps 664 mmHg 88%
    23:00 +6°C° 0.2 mm 1 mps 664 mmHg 88%

    23 November, Friday

    Time Temperature Precipitation Wind Pressure Humidity
    00:00 +5°C° 0.2 mm 1 mps 664 mmHg 88%
    01:00 +5°C° 0.2 mm 1 mps 664 mmHg 88%
    02:00 +5°C° 0.2 mm 1 mps 664 mmHg 88%
    03:00 +5°C° 0.2 mm 1 mps 664 mmHg 87%
    04:00 +5°C° 0.3 mm 1 mps 664 mmHg 87%
    05:00 +4°C° 0.3 mm 0 mps 664 mmHg 87%
    06:00 +4°C° 0.3 mm 0 mps 664 mmHg 87%
    07:00 +6°C° 0.2 mm 1 mps 664 mmHg 86%
    08:00 +6°C° 0.2 mm 1 mps 664 mmHg 84%
    09:00 +6°C° 0.2 mm 1 mps 665 mmHg 83%
    10:00 +7°C° 0.4 mm 1 mps 665 mmHg 83%
    11:00 +7°C° 0.4 mm 1 mps 665 mmHg 82%
    12:00 +7°C° 0.4 mm 1 mps 664 mmHg 81%
    13:00 +6°C° 0.3 mm 2 mps 665 mmHg 82%
    14:00 +6°C° 0.3 mm 2 mps 665 mmHg 83%
    15:00 +6°C° 0.3 mm 2 mps 665 mmHg 84%
    16:00 +5°C° 0.1 mm 2 mps 665 mmHg 87%
    17:00 +5°C° 0.1 mm 2 mps 666 mmHg 90%
    18:00 +4°C° 0.1 mm 2 mps 667 mmHg 93%
    19:00 +5°C° 0.1 mm 1 mps 667 mmHg 93%
    20:00 +5°C° 0.1 mm 1 mps 668 mmHg 93%
    21:00 +5°C° 0.1 mm 1 mps 668 mmHg 93%
    22:00 +4°C° 0 mm 1 mps 668 mmHg 93%
    23:00 +4°C° 0 mm 1 mps 669 mmHg 93%

    24 November, Saturday

    Time Temperature Precipitation Wind Pressure Humidity
    00:00 +4°C° 0 mm 1 mps 669 mmHg 93%
    01:00 +4°C° 0 mm 1 mps 669 mmHg 93%
    02:00 +2°C° 0 mm 0 mps 669 mmHg 92%
    03:00 +2°C° 0 mm 0 mps 670 mmHg 91%
    04:00 +2°C° 0 mm 0 mps 670 mmHg 91%
    05:00 +3°C° 0 mm 1 mps 670 mmHg 91%
    06:00 +2°C° 0 mm 1 mps 670 mmHg 90%
    07:00 +3°C° 0 mm 1 mps 671 mmHg 85%
    08:00 +3°C° 0 mm 2 mps 671 mmHg 80%
    09:00 +4°C° 0 mm 2 mps 672 mmHg 75%
    10:00 +5°C° 0 mm 2 mps 672 mmHg 71%
    11:00 +5°C° 0 mm 3 mps 672 mmHg 67%
    12:00 +7°C° 0 mm 3 mps 672 mmHg 63%
    13:00 +6°C° 0 mm 4 mps 671 mmHg 64%
    14:00 +5°C° 0 mm 4 mps 671 mmHg 64%
    15:00 +5°C° 0 mm 4 mps 671 mmHg 65%
    16:00 +4°C° 0 mm 4 mps 671 mmHg 68%
    17:00 +3°C° 0 mm 3 mps 671 mmHg 71%
    18:00 +2°C° 0 mm 3 mps 671 mmHg 74%
    19:00 +1°C° 0 mm 3 mps 671 mmHg 74%
    20:00 +1°C° 0 mm 3 mps 671 mmHg 74%
    21:00 +1°C° 0 mm 3 mps 671 mmHg 74%
    22:00 +1°C° 0 mm 3 mps 671 mmHg 74%
    23:00 +1°C° 0 mm 3 mps 671 mmHg 75%

    25 November, Sunday

    Time Temperature Precipitation Wind Pressure Humidity
    00:00 +1°C° 0 mm 3 mps 670 mmHg 75%
    01:00 0°C° 0 mm 3 mps 670 mmHg 75%
    02:00 +1°C° 0 mm 2 mps 670 mmHg 75%
    03:00 +1°C° 0 mm 2 mps 669 mmHg 76%
    04:00 +1°C° 0 mm 2 mps 669 mmHg 75%
    05:00 +1°C° 0 mm 2 mps 669 mmHg 75%
    06:00 +1°C° 0 mm 2 mps 668 mmHg 75%
    07:00 +2°C° 0 mm 2 mps 669 mmHg 72%
    08:00 +3°C° 0 mm 2 mps 669 mmHg 68%
    09:00 +4°C° 0 mm 2 mps 669 mmHg 65%
    10:00 +6°C° 0 mm 2 mps 668 mmHg 61%
    11:00 +7°C° 0 mm 2 mps 668 mmHg 58%
    12:00 +10°C° 0 mm 1 mps 668 mmHg 54%
    13:00 +10°C° 0 mm 1 mps 667 mmHg 55%
    14:00 +10°C° 0 mm 1 mps 667 mmHg 57%
    15:00 +10°C° 0 mm 1 mps 666 mmHg 58%
    16:00 +8°C° 0 mm 1 mps 666 mmHg 63%
    17:00 +7°C° 0 mm 1 mps 666 mmHg 68%
    18:00 +5°C° 0 mm 1 mps 666 mmHg 73%
    19:00 +5°C° 0 mm 1 mps 666 mmHg 74%
    20:00 +5°C° 0 mm 1 mps 666 mmHg 74%
    21:00 +4°C° 0 mm 1 mps 666 mmHg 75%
    22:00 +4°C° 0 mm 1 mps 666 mmHg 75%
    23:00 +4°C° 0 mm 1 mps 665 mmHg 75%
    Show more